Malaysia Virtual Airlines Airport Information Service

Kuching Airport

ICAO: WBGG Country: Malaysia
Latitude: 1.4847 Longitude: 110.347
Latest Arrival : OD1622 (WMKK-WBGG) Latest Departure : MH2806 (WBGG-WBKK)


WX CaptureLIVE
Data provided by noaa.gov | Fetched at 15:31:28

METAR : WBGG 261500Z VRB02KT 9999 FEW020 26/22 Q1009 NOSIG

TAF : WBGG 261100Z 2612/2712 VRB03KT 9999 SCT020


Runway Data for WBGG
Data provided by openaviationdata.com

Runway ID Mag Var Hdg Length Elevation Surface ILS Freq ILS Id ILS Slope
7 1 67° 8063 ft 89 ft Asphalt -- -- --
25 1 247° 8063 ft 89 ft Asphalt 110.3 IKG 3

Kuching Airport, Malaysia
Use only for reference purposes



Not for navigational purposes.